TimePST,TemperatureF,Dew PointF,Humidity,Sea Level PressureIn,VisibilityMPH,Wind Direction,Wind SpeedMPH,Gust SpeedMPH,PrecipitationIn,Events,Conditions,WindDirDegrees,DateUTC
12:18 AM,33.8,32.0,93,30.33,9.0,ENE,4.6,-,N/A,,Partly Cloudy,70,2013-01-20 08:18:00
12:53 AM,33.1,32.0,96,30.34,7.0,ENE,8.1,-,N/A,,Clear,60,2013-01-20 08:53:00
1:02 AM,33.8,32.0,93,30.34,7.0,NE,4.6,-,N/A,,Partly Cloudy,50,2013-01-20 09:02:00
1:16 AM,33.8,32.0,93,30.34,8.0,NE,5.8,-,N/A,,Mostly Cloudy,40,2013-01-20 09:16:00
1:53 AM,34.0,33.1,96,30.35,10.0,ENE,8.1,-,0.01,,Overcast,60,2013-01-20 09:53:00
2:53 AM,34.0,33.1,96,30.35,9.0,NE,8.1,-,N/A,,Overcast,50,2013-01-20 10:53:00
3:53 AM,35.1,33.1,92,30.34,10.0,NE,9.2,-,N/A,,Overcast,50,2013-01-20 11:53:00
4:53 AM,35.1,33.1,92,30.33,10.0,NE,8.1,-,N/A,,Overcast,50,2013-01-20 12:53:00
5:53 AM,35.1,33.1,92,30.33,10.0,NE,10.4,-,N/A,,Overcast,50,2013-01-20 13:53:00
6:53 AM,35.1,33.1,92,30.32,10.0,NE,9.2,-,N/A,,Overcast,50,2013-01-20 14:53:00
7:53 AM,35.1,33.1,92,30.33,10.0,NE,8.1,-,N/A,,Overcast,50,2013-01-20 15:53:00
8:53 AM,35.1,34.0,96,30.34,7.0,ENE,6.9,-,N/A,,Overcast,60,2013-01-20 16:53:00
9:53 AM,37.0,35.1,93,30.35,9.0,ENE,8.1,-,N/A,,Overcast,70,2013-01-20 17:53:00
10:50 AM,37.4,35.6,93,30.33,8.0,ENE,13.8,-,N/A,,Scattered Clouds,70,2013-01-20 18:50:00
10:53 AM,37.9,35.1,89,30.34,8.0,ENE,13.8,-,N/A,,Partly Cloudy,70,2013-01-20 18:53:00
11:53 AM,41.0,36.0,82,30.31,10.0,East,16.1,-,N/A,,Clear,80,2013-01-20 19:53:00
12:53 PM,44.1,37.0,76,30.28,10.0,East,12.7,-,N/A,,Clear,80,2013-01-20 20:53:00
1:53 PM,45.0,37.9,76,30.26,10.0,East,13.8,-,N/A,,Clear,80,2013-01-20 21:53:00
2:53 PM,45.0,37.9,76,30.26,10.0,East,13.8,-,N/A,,Clear,80,2013-01-20 22:53:00
3:53 PM,44.1,37.0,76,30.26,10.0,East,11.5,-,N/A,,Clear,80,2013-01-20 23:53:00
4:53 PM,41.0,36.0,82,30.25,10.0,ENE,10.4,-,N/A,,Clear,70,2013-01-21 00:53:00
5:53 PM,37.9,35.1,89,30.24,10.0,ENE,11.5,-,N/A,,Clear,70,2013-01-21 01:53:00
6:53 PM,36.0,34.0,93,30.24,8.0,ENE,12.7,-,N/A,,Clear,70,2013-01-21 02:53:00
7:53 PM,35.1,33.1,92,30.25,8.0,ENE,8.1,-,N/A,,Clear,70,2013-01-21 03:53:00
8:53 PM,35.1,33.1,92,30.25,9.0,NE,8.1,-,N/A,,Clear,40,2013-01-21 04:53:00
9:53 PM,34.0,32.0,92,30.25,7.0,NE,5.8,-,N/A,,Clear,50,2013-01-21 05:53:00
10:53 PM,33.1,32.0,96,30.24,7.0,East,6.9,-,N/A,,Clear,80,2013-01-21 06:53:00
11:53 PM,33.1,32.0,96,30.25,8.0,ENE,8.1,-,N/A,,Clear,70,2013-01-21 07:53:00